User: anonymous   Login
Location: Peebles
(55.6412°N, 3.1714°W)
Time: 16:54:52
(UTC+01:00)
Language:

NOAA 16 DEB - Orbit

View from above orbital plane
View from above orbital plane
View from above satellite
View from above satellite

Ground track
Ground track

The orbit data is extracted from the following two-line orbital elements,

1 41156U 00055CP  22183.85746108  .00002134  00000-0  80701-3 0  9991
2 41156  98.9600 335.6832 0055415 339.7785  20.1202 14.31515677343099
Epoch (UTC): 02 July 2022 20:34:44
Eccentricity: 0.0055415
inclination: 98.9600°
perigee height: 747 km
apogee height: 826 km
right ascension of ascending node: 335.6832°
argument of perigee: 339.7785°
revolutions per day: 14.31515677
mean anomaly at epoch: 20.1202°
orbit number at epoch: 34309

The dashed part of the orbit path shows where the satellite is in the earth's shadow,  

DLR